Lawrence, MA

3:15 PM EDT on July 28, 2016 (GMT -0400)
Lawrence Municipal

Weather History for KLWM - July, 2013

Change the Weather History Date:

Monday, July 8, 2013

  Actual Average Record
Temperature  
Mean Temperature 73 °F -  
Max Temperature 82 °F 84 °F 98 °F (1937)
Min Temperature 64 °F 60 °F 50 °F (1990)
Cooling Degree Days 8    
Growing Degree Days 23 (Base 50)    
Moisture  
Dew Point 66 °F    
Average Humidity 80    
Maximum Humidity 94    
Minimum Humidity 64    
Precipitation  
Precipitation 0.55 in - - ()
Sea Level Pressure  
Sea Level Pressure 30.01 in    
Wind  
Wind Speed 5 mph (ENE)    
Max Wind Speed 13 mph    
Max Gust Speed 18 mph    
Visibility 8 miles    
Events Fog , Rain , Thunderstorm    
Averages and records for this station are not official NWS values.
T = Trace of Precipitation, MM = Missing Value Source: NWS Daily Summary

Daily Weather History Graph

Daily Weather History Graph

Search for Another Location

Airport or City:

Trip Planner

Search our weather history database for the weather conditions in past years. The results will help you decide how hot, cold, wet, or windy it might be!

Date:

Astronomy

Jul. 08, 2013 Rise Set
Actual Time 5:14 AM EDT 8:24 PM EDT
Civil Twilight 4:40 AM EDT 8:58 PM EDT
Nautical Twilight 3:55 AM EDT 9:42 PM EDT
Astronomical Twilight 3:02 AM EDT 10:35 PM EDT
Moon 5:43 AM EDT (7/8) 8:22 PM EDT (7/8)
Length of Visible Light 16h 18m
Length of Day
15h 09m
New Moon, 0% of the Moon is Illuminated
Jul 8
New Moon
Jul 15
First Quarter
Jul 22
Full
Jul 29
Last Quarter
Aug 6
New

Hourly Weather History & Observations

Time (EDT) Temp. Heat Index Dew Point Humidity Pressure Visibility Wind Dir Wind Speed Gust Speed Precip Events Conditions
12:54 AM 78.1 °F - 70.0 °F 76% 29.93 in 10.0 mi Calm Calm - N/A   Clear
1:54 AM 75.9 °F - 71.1 °F 85% 29.94 in 10.0 mi SW 3.5 mph - N/A   Clear
2:54 AM 75.9 °F - 70.0 °F 82% 29.94 in 10.0 mi Calm Calm - N/A   Partly Cloudy
3:54 AM 75.9 °F - 70.0 °F 82% 29.93 in 10.0 mi SSW 4.6 mph - N/A   Clear
4:54 AM 75.9 °F - 70.0 °F 82% 29.93 in 10.0 mi Calm Calm - N/A   Clear
5:54 AM 75.9 °F - 70.0 °F 82% 29.94 in 10.0 mi SSW 3.5 mph - N/A   Clear
6:54 AM 78.1 °F - 71.1 °F 79% 29.95 in 10.0 mi WSW 4.6 mph - N/A   Scattered Clouds
7:54 AM 80.1 °F 83.6 °F 71.1 °F 74% 29.95 in 10.0 mi West 3.5 mph - N/A   Clear
8:54 AM 82.0 °F 86.7 °F 72.0 °F 71% 29.96 in 10.0 mi Variable 3.5 mph - N/A   Mostly Cloudy
9:15 AM 82.4 °F 87.2 °F 71.6 °F 70% 29.96 in 10.0 mi North 3.5 mph - N/A   Mostly Cloudy
9:54 AM 82.0 °F 86.3 °F 71.1 °F 69% 29.96 in 10.0 mi NE 8.1 mph - N/A   Mostly Cloudy
10:54 AM 80.1 °F 82.9 °F 69.1 °F 69% 29.98 in 10.0 mi ENE 8.1 mph 17.3 mph N/A   Mostly Cloudy
11:54 AM 80.1 °F 82.7 °F 68.0 °F 67% 29.99 in 10.0 mi East 10.4 mph 18.4 mph N/A   Mostly Cloudy
12:31 PM 80.6 °F 83.9 °F 69.8 °F 70% 30.00 in 10.0 mi ENE 10.4 mph 18.4 mph N/A   Scattered Clouds
12:54 PM 81.0 °F 83.8 °F 68.0 °F 65% 30.00 in 10.0 mi East 10.4 mph - N/A   Scattered Clouds
1:54 PM 80.1 °F 82.7 °F 68.0 °F 67% 30.00 in 10.0 mi East 10.4 mph - N/A   Mostly Cloudy
2:54 PM 79.0 °F - 66.0 °F 64% 29.99 in 10.0 mi East 10.4 mph 17.3 mph N/A   Partly Cloudy
3:54 PM 77.0 °F - 66.0 °F 69% 29.99 in 10.0 mi East 8.1 mph - N/A   Clear
4:54 PM 75.9 °F - 64.9 °F 69% 30.00 in 10.0 mi East 9.2 mph - N/A   Partly Cloudy
5:47 PM 71.6 °F - 62.6 °F 73% 30.02 in 10.0 mi NE 12.7 mph - N/A Thunderstorm Mostly Cloudy
5:54 PM 71.1 °F - 63.0 °F 75% 30.03 in 10.0 mi NE 11.5 mph - N/A Thunderstorm Mostly Cloudy
5:56 PM 71.6 °F - 62.6 °F 73% 30.03 in 10.0 mi NNE 11.5 mph - N/A   Mostly Cloudy
6:06 PM 69.8 °F - 62.6 °F 78% 30.03 in 10.0 mi NE 10.4 mph - N/A   Overcast
6:24 PM 71.6 °F - 64.4 °F 78% 30.02 in 10.0 mi ENE 9.2 mph - 0.01 in Rain Light Rain
6:35 PM 69.8 °F - 64.4 °F 83% 30.02 in 9.0 mi ENE 9.2 mph - 0.01 in Rain Light Rain
6:42 PM 69.8 °F - 64.4 °F 83% 30.02 in 1.8 mi SE 6.9 mph - 0.13 in Rain Heavy Rain
6:50 PM 66.2 °F - 64.4 °F 94% 30.02 in 0.5 mi SE 6.9 mph - 0.34 in Fog , Rain , Thunderstorm Heavy Thunderstorms and Rain
6:54 PM 66.9 °F - 64.0 °F 90% 30.01 in 0.8 mi ESE 9.2 mph - 0.39 in Rain , Thunderstorm Heavy Thunderstorms and Rain
7:02 PM 68.0 °F - 64.4 °F 88% 30.02 in 1.2 mi East 10.4 mph - 0.09 in Rain , Thunderstorm Heavy Thunderstorms and Rain
7:07 PM 68.0 °F - 64.4 °F 88% 30.02 in 2.0 mi NE 8.1 mph - 0.09 in Rain , Thunderstorm Thunderstorms and Rain
7:16 PM 66.2 °F - 64.4 °F 94% 30.03 in 4.0 mi NE 8.1 mph - 0.10 in Rain , Thunderstorm Rain
7:27 PM 66.2 °F - 64.4 °F 94% 30.03 in 2.0 mi ENE 9.2 mph - 0.16 in Rain , Thunderstorm Heavy Thunderstorms and Rain
7:36 PM 66.2 °F - 64.4 °F 94% 30.04 in 4.0 mi ENE 6.9 mph - 0.16 in Rain Light Rain
7:42 PM 66.2 °F - 62.6 °F 88% 30.04 in 6.0 mi ENE 6.9 mph - 0.16 in Rain Light Rain
7:54 PM 66.0 °F - 63.0 °F 90% 30.04 in 10.0 mi ENE 9.2 mph - 0.16 in Thunderstorm Overcast
8:14 PM 66.2 °F - 62.6 °F 88% 30.05 in 10.0 mi NE 4.6 mph - N/A   Overcast
8:54 PM 66.0 °F - 63.0 °F 90% 30.06 in 10.0 mi NNE 5.8 mph - N/A   Overcast
9:54 PM 64.9 °F - 62.1 °F 90% 30.08 in 10.0 mi NE 3.5 mph - N/A   Overcast
10:21 PM 66.2 °F - 62.6 °F 88% 30.08 in 10.0 mi Calm Calm - N/A   Overcast
10:54 PM 66.9 °F - 62.1 °F 84% 30.09 in 10.0 mi Calm Calm - N/A   Overcast
11:01 PM 66.2 °F - 62.6 °F 88% 30.09 in 10.0 mi Calm Calm - N/A   Overcast
11:14 PM 66.2 °F - 60.8 °F 83% 30.09 in 10.0 mi ENE 3.5 mph - N/A   Overcast
11:23 PM 66.2 °F - 62.6 °F 88% 30.09 in 10.0 mi East 3.5 mph - N/A   Overcast
11:54 PM 66.0 °F - 62.1 °F 87% 30.09 in 10.0 mi North 4.6 mph - N/A   Overcast